Погода в Кызылорде

Хотите узнать прогноз погоды в Кызылорде? Тогда Вам сюда: Погода в Кызылорде

Поиск расширенной информации на нашем сайте:

Полезная информация:

Новости сайта



02.01.2020
Опубликован Долгосрочный прогноз погоды по городам России и ближнего зарубежья на январь 2020 года.
Карты: Прогноз на январь и февраль 2020 года, Сравнение прогнозируемой аномалии приземной температуры воздуха на январь 2020 года по разным моделям.




Погода в Кызылорде - сегодня

Время (UTC), дата Ветер
(°,м/с) 
Видим.   Явления Облачность Т
(°С)
Тd
(°С)
f(%) Тe
(°С)
Pmin
(гПа)
dP
(гПа)
Po
(мм)
O2
(г/м3)
Тmin Tmax R s Состояние
почвы
15 27.03.20 360 (С) н/о  дым  ясно 
+10.7 -7.1 28 +11  1023.1  0.4  755  294    +16.5       
18 27.03.20 020 (С) н/о    ясно 
+8.9 -6.7 32 +10  1023.6  0.4  756  296    +16.5       
21 27.03.20 010 (С) н/о    ясно 
+6.6 -6.9 37 +8  1023.3  -0.5  755  298           
00 28.03.20 тихо ()   н/о    ясно 
+1.2 -8.1 50 +1  1023.5  755  304           
03 28.03.20 тихо ()   20000 м    ясно 
+4.2 -4.4 53 +4  1024.9  1.4  756  301           
06 28.03.20 010 (С) 20000 м    ясно 
+13.6 -3 31 +14  1024.9  0.6  757  291  +0.2         
09 28.03.20 350 (С) 20000 м    ясно 
+16.2 -10.3 15 +17  1023.9  -0.9  756  289           
12 28.03.20 360 (С) 20000 м    5/0 верхняя 
[Ci]
+16.3 -8.2 18 +17  1023.5  -0.4  756  288           
15 28.03.20 тихо ()   н/о  дым  ясно 
+12 -2.5 36 +12  1024  0.3  756  292    +17.6       
18 28.03.20 060 (СВ) н/о    ясно 
+8.8 -2.7 44 +9  1025  0.9  757  296    +17.6       
21 28.03.20 070 (В) н/о    ясно 
+5.7 -2 58 +4  1025.7  0.4  757  299           
00 29.03.20 080 (В) н/о    ясно 
+3.2 -2.9 64 +1  1025.6  -0.2  757  302           
03 29.03.20 060 (СВ) 20000 м    ясно 
+2.2 -2.4 72 1025.8  0.1  757  303           
06 29.03.20 070 (В) 20000 м  пыльный позёмок  ясно 
+9.1 -0.5 51 +7  1024.4  -0.9  756  295  +0.5         
09 29.03.20 070 (В) 20000 м  пыльный позёмок  ясно 
+14.1 -1.7 34 +13  1021.5  -2.6  754  289           
12 29.03.20 070 (В) 20000 м  пыльный позёмок  ясно 
+15.8 -2.2 29 +15  1019.3  -2.1  753  287           
15 29.03.20 070 (В) н/о    ясно 
+12.2 -2.5 36 +12  1019  -0.5  752  291    +16.4       
18 29.03.20 060 (СВ) н/о    ясно 
+8.7 -4.4 39 +8  1018.7  -0.5  752  294    +16.4       
21 29.03.20 070 (В) н/о    ясно 
+6.8 -4.4 45 +5  1017.6  -1.1  751  296           
00 30.03.20 080 (В) н/о    ясно 
+3.9 -3.4 59 +2  1016.7  -1.1  750  299           
03 30.03.20 090 (В) 20000 м  пыльный позёмок  ясно 
+4.6 -2.8 59 +2  1016.8  0.2  751  298           
06 30.03.20 090 (В) 7{15}  20000 м  пыльный позёмок  ясно 
+12.1 -0.7 41 +11  1015.7  -0.8  750  289  +2.2         
09 30.03.20 090 (В) 7{17}  20000 м  пыльный позёмок  3/0 верхняя 
[Ci fib]
+17.3 -1.9 27 +17  1013  -2.3  748  284           
12 30.03.20 090 (В) 6{16}  20000 м  пыльный позёмок  3/0 верхняя 
[Ci fib]
+18.3 -2.5 24 +18  1011.7  -1.3  747  282           
15 30.03.20 080 (В) 4{15}  н/о    ясно 
+13.9 -6.7 23 +14  1010.8  -1.1  746  287    +19.7       
Время (UTC), дата Ветер
(°,м/с) 
Видим.   Явления Облачность Т
(°С)
Тd
(°С)
f(%) Тe
(°С)
Pmin
(гПа)
dP
(гПа)
Po
(мм)
O2
(г/м3)
Тmin Tmax R s Состояние
почвы

Для получения пояснительной информации подведите курсор к названию столбца.

ПОГОДА в Кызылорде - архив

Всё, что Вы хотите узнать о погоде в Кызылорде - удобно и подробно!

Выберите нужную дату (начиная с 1 января 2019* года) и нажмите кнопку "Найти".
Будут отображены архивные сводки погоды по пункту Кызылорда, начиная с указанной даты.


Отображать данные в формате CSV (для использования в таблицах Excel)


Внимание! Наш архив погоды предназначен исключительно для личного некоммерческого использования в познавательных целях. Если Вам необходимы официальные справки о состоянии погоды (для производственных, юридических, коммерческих и т.п. целей), обращайтесь в органы Росгидромета.

*Примечание: данная дата относится к архиву по метеостанциям СССР (Россия, СНГ, Балтия).
Архив по метеостанциям Зарубежной Европы и Азии (кроме Китая) хранится 10 дней, по другим регионам земного шара (Китай, Африка, Америка, Австралия, Океания) - 1 день.

Кызылорда - район местоположения метеостанции


Название, широта, долгота, высота метеостанции:
Кызылорда (город) 44.8°ш. 65.5°д. 130 м над ур. моря [Казахстан]

Дополнительная информация

В oтличие oт бoльшинства пoгoдных сайтoв мы публикуем пoдрoбную метеoинфoрмацию в детальнoм прoфессиoнальнoм фoрмате.

Характеристики температуры и влажнoсти вoздуха измеряются на высoте 2 м в тени вдали oт зданий и деревьев.
Скoрoсть ветра измеряется на высoте 10 м (на урoвне рoста челoвека скoрoсть ветра ниже в 1.5-2 раза). Если метеoстанция нахoдится в гoрoде или в лесу, тo скoрoсть ветра занижена на 2-4 м/с пo сравнению с oткрытым местoм. Скoрoсть ветра над акватoриями крупных рек и oзёр, а также на вершинах хoлмoв на 2-5 м/с выше, чем в oбычных услoвиях.
Атмoсфернoе давление в разных тoчках местнoсти мoжет значительнo oтличаться oт давления на метеoстанции, в зависимoсти oт услoвий рельефа (при пoдъёме на 10 м давление пoнижается примернo на 1 мм рт.ст.).